Tracking 35280 objects as of 7-Sep-2026
HD Live streaming from Space Station
objects crossing your sky now

STARLINK-3271

Track STARLINK-3271 now!
10-day predictions
STARLINK-3271 is classified as:


NORAD ID: 50167
Int'l Code: 2021-125M
Launch date: December 18, 2021
Source: United States (US)
Launch site: AIR FORCE WESTERN TEST RANGE (AFWTR)
Your satellite tracking list
Your tracking list is empty




NASA's NSSDC Master Catalog

Two Line Element Set (TLE):
1 50167U 21125M   26250.44957568  .00001005  00000-0  39729-4 0  9993
2 50167  53.1592 153.5051 0001207  93.7671 266.3470 15.35396990264021
Source of the keplerian elements: AFSPC